EHI
0 0 0 0 0 0 0 0 0 0 0 0 0 0 0 0 0 0 0 0 4 14 22 27 31 30 23 14 8 6 7 8 7 6 5 5 4 3 1 0 1 1 0 0 0 0 0 0 0
0 0 0 0 0 0 0 0 0 0 0 0 0 0 0 0 0 0 0 0 4 13 21 25 30 30 23 14 8 5 5 6 6 4 4 5 5 3 1 1 2 2 1 1 0 0 0 0 0
0 0 0 0 0 0 0 0 0 0 0 0 0 0 0 0 0 0 0 0 4 11 18 25 30 31 24 14 8 4 4 4 4 3 3 4 5 3 2 2 3 3 2 2 1 0 0 0 0
0 0 0 0 0 0 0 0 0 0 0 0 0 0 0 0 0 0 0 1 4 9 15 22 28 28 22 15 8 4 3 3 3 2 2 3 4 4 3 2 2 2 2 2 1 0 0 0 0
0 0 0 0 0 0 0 0 0 0 0 0 0 0 0 0 0 0 1 2 5 9 12 16 21 21 19 14 8 4 3 3 3 1 2 3 4 4 2 1 1 1 0 1 1 0 0 0 0
0 0 0 0 0 0 0 0 0 0 0 0 0 0 0 1 1 0 1 4 7 10 11 12 14 15 15 14 10 6 4 4 3 2 2 3 3 2 1 0 0 0 0 0 0 0 0 0 0
0 0 0 0 0 0 0 0 0 0 0 0 0 0 1 2 3 2 2 5 7 10 11 10 9 9 11 12 12 9 7 6 5 4 3 2 1 1 0 0 0 0 0 0 0 0 0 0 0
0 0 0 0 0 0 0 0 0 0 0 0 0 0 1 4 6 6 5 6 7 9 11 9 6 5 6 9 10 9 7 6 5 4 2 1 0 0 0 0 0 0 0 0 0 0 0 0 0
0 0 0 0 0 0 0 0 0 0 0 0 0 1 2 5 6 7 7 8 8 9 10 9 5 4 5 7 7 6 5 4 4 3 1 0 0 0 0 0 0 0 0 0 0 0 0 0 0
0 0 0 0 0 0 0 0 0 0 0 0 0 1 3 5 5 4 6 7 8 9 9 8 7 6 6 7 7 6 4 3 3 2 1 0 0 0 0 0 0 0 0 0 0 0 0 0 0
0 0 0 0 0 0 0 0 0 0 0 0 0 1 2 4 3 2 2 4 7 9 8 8 8 8 7 7 7 7 6 4 3 3 1 1 0 0 0 0 0 0 0 0 0 0 0 0 0
0 0 0 0 0 0 0 0 0 0 0 0 0 0 1 2 2 1 1 3 6 8 9 8 8 7 6 6 7 8 7 4 3 3 3 2 2 2 1 0 0 0 0 0 0 0 0 0 0
0 0 0 0 0 0 0 0 0 0 0 0 0 0 0 1 2 2 2 3 5 6 7 7 6 5 5 6 8 8 6 5 3 3 3 3 3 4 3 2 1 0 0 0 0 0 0 0 0
0 0 0 0 0 0 0 0 0 0 0 0 0 0 0 0 1 2 2 2 3 3 4 5 5 4 5 6 7 7 6 5 4 3 2 1 2 3 4 3 2 0 0 0 0 0 0 0 0
0 0 0 0 0 0 0 0 0 0 0 0 0 0 0 0 0 1 1 1 2 3 3 3 3 4 4 4 4 4 4 4 4 3 2 0 0 1 2 2 1 0 0 0 0 0 0 0 0
0 0 0 0 0 0 0 0 0 0 0 0 0 0 0 0 0 0 0 1 2 2 2 1 1 2 2 2 1 1 1 3 3 3 1 0 0 0 0 0 0 0 0 0 0 0 0 0 0
0 0 0 0 0 0 0 0 0 0 0 0 0 0 0 0 0 0 0 1 2 2 1 1 0 0 1 1 0 0 0 1 2 2 1 0 0 0 0 0 0 0 0 0 0 0 0 0 0
0 0 0 0 0 0 0 0 0 0 0 0 0 0 0 0 0 0 0 0 1 2 2 2 1 0 1 1 0 0 0 0 1 2 1 0 0 0 0 0 0 0 0 0 0 0 0 0 0
0 0 0 0 0 0 0 0 0 0 0 0 0 0 0 0 0 0 0 0 0 1 2 2 1 0 1 1 0 0 0 0 0 1 1 0 0 0 0 1 1 1 0 0 0 0 0 0 0
0 0 0 0 0 0 0 0 0 0 0 0 0 0 0 0 0 0 0 0 0 0 1 1 1 0 1 1 1 0 0 0 0 0 0 0 0 0 0 1 1 1 0 0 0 0 0 0 0
0 0 0 0 0 0 0 0 0 0 0 0 0 0 0 0 0 0 0 0 0 0 0 0 0 0 0 0 1 0 0 0 0 0 0 0 0 0 0 0 1 1 0 0 0 0 0 0 0
0 0 0 0 0 0 0 0 0 0 0 0 0 0 0 0 0 0 0 0 0 0 0 0 0 0 0 0 0 0 0 0 0 0 0 0 0 0 0 0 0 0 0 0 0 0 0 0 0
0 0 0 0 0 0 0 0 0 0 0 0 0 0 0 0 0 0 0 0 0 0 0 0 0 0 0 0 0 0 0 0 0 0 0 1 0 0 0 0 0 0 0 0 0 0 0 0 0
0 0 0 0 0 0 0 0 0 0 0 0 0 0 0 0 0 0 0 0 0 0 0 0 0 0 0 0 0 0 0 0 0 0 0 0 0 0 0 0 0 0 0 0 0 0 0 0 0
0 0 0 0 0 0 0 0 0 0 0 0 0 0 0 0 0 0 0 0 0 0 0 0 0 0 0 0 0 0 0 0 0 0 0 0 0 0 0 0 0 0 0 0 0 0 0 0 0
0 0 0 0 0 0 0 0 0 0 0 0 0 0 0 0 0 0 0 0 0 0 0 0 0 0 0 0 0 0 0 0 1 1 1 1 1 0 0 0 0 0 0 0 0 0 0 0 0
0 0 0 0 0 0 0 0 0 0 0 0 0 0 0 0 0 0 0 0 0 0 0 0 0 0 0 0 0 0 0 0 0 1 1 2 2 1 1 0 0 0 0 0 0 0 0 0 0
0 0 0 0 0 0 0 0 0 0 0 0 0 0 0 0 0 0 0 0 0 0 0 0 0 0 0 0 0 0 0 0 0 0 1 1 2 2 1 0 0 0 0 0 0 0 0 0 0
0 0 0 0 0 0 0 0 0 0 0 0 0 0 0 0 0 0 0 0 0 0 0 0 0 0 0 0 0 0 0 0 0 0 0 0 1 1 1 0 0 0 0 0 0 0 0 0 0
0 0 0 0 0 0 0 0 0 0 0 0 0 0 0 0 0 0 0 0 0 0 0 0 0 0 0 0 0 0 0 0 0 0 0 0 0 0 0 0 0 0 0 0 0 0 0 0 0
Wind_Speed
2 2 3 4 6 7 11 7 4 5 5 3 3 4 4 3 1 3 5 8 11 14 14 15 12 13 13 13 12 13 12 12 12 12 12 11 11 11 11 11 11 11 11 11 11 11 12 12 12
2 3 4 5 7 10 9 8 8 6 4 5 4 4 3 2 3 5 7 9 12 14 13 13 13 13 13 13 13 12 12 12 12 11 11 11 11 11 10 10 11 11 11 11 11 11 11 11 11
3 3 5 5 8 10 6 5 7 5 5 5 5 2 1 3 4 5 7 11 13 13 13 14 13 13 13 13 12 12 12 12 11 11 11 11 11 10 10 10 10 10 10 10 10 10 10 10 10
4 5 5 8 12 9 4 3 4 7 6 4 4 5 3 3 2 5 10 12 13 13 13 14 13 13 13 13 12 12 11 11 11 11 11 11 10 10 10 10 10 10 10 10 9 10 10 10 10
4 5 8 10 12 7 5 2 4 7 7 6 5 4 5 4 3 8 11 12 13 12 12 14 12 13 13 12 12 11 11 11 11 10 10 10 10 10 10 9 9 9 9 9 9 9 9 9 9
6 6 9 13 12 7 6 6 6 7 6 5 6 5 5 5 6 9 10 11 11 12 11 13 12 12 12 12 12 11 11 10 10 10 10 10 10 10 9 9 9 9 9 8 8 8 8 8 8
6 7 10 11 10 9 6 6 8 7 7 5 4 5 6 7 7 9 10 10 10 11 11 11 11 11 11 11 11 11 10 10 10 9 9 9 9 9 9 9 9 8 8 8 7 7 7 7 7
5 6 9 10 11 9 6 6 4 6 5 2 3 5 6 9 9 9 9 9 9 9 9 10 10 10 10 10 10 10 10 10 10 9 9 9 9 8 7 7 8 8 7 7 7 7 7 7 6
5 8 11 10 9 7 6 7 4 1 3 3 2 1 4 11 11 11 10 9 9 8 8 8 9 9 9 9 9 9 9 9 9 9 8 7 6 6 6 6 7 6 7 7 6 6 6 5 5
8 10 11 5 5 4 6 6 5 6 7 6 5 3 8 12 12 13 12 12 11 10 9 8 8 8 8 7 7 6 6 7 6 6 7 5 4 4 4 7 6 6 6 6 6 6 5 2 3
9 10 7 5 4 3 5 5 5 7 7 7 7 9 11 13 12 12 12 12 11 10 9 8 7 7 7 6 5 4 4 4 5 6 6 4 4 4 3 3 4 4 4 4 4 4 2 2 1
8 8 6 4 3 4 4 4 5 7 3 0 3 7 11 13 13 12 12 11 10 10 9 8 7 7 7 6 5 5 4 3 3 4 5 4 3 3 3 2 3 2 2 2 2 1 2 2 2
11 7 6 4 4 4 4 5 4 6 3 1 4 8 10 12 11 10 9 9 9 9 9 8 7 7 6 6 5 5 4 4 4 4 4 4 3 3 3 2 2 2 2 2 2 2 2 1 1
8 7 5 6 6 5 6 6 6 5 3 4 6 8 9 10 11 10 10 10 10 9 9 8 8 7 7 5 5 5 4 4 4 3 4 4 3 3 3 3 2 2 2 1 1 1 1 1 1
6 8 8 7 7 5 5 9 9 6 5 6 6 7 8 8 9 10 10 10 10 9 9 8 7 7 7 6 5 4 4 4 4 3 4 4 3 3 3 2 2 2 2 2 1 1 1 1 1
8 9 10 8 8 7 9 12 7 5 6 7 7 7 7 7 8 8 9 9 9 8 8 7 6 7 7 6 5 3 4 4 3 3 3 4 4 4 3 2 2 2 2 2 1 1 1 1 1
9 11 13 8 8 7 11 11 4 4 6 8 7 7 7 7 7 8 8 8 8 8 8 8 7 7 6 5 4 4 3 3 3 3 3 3 4 4 3 2 2 2 2 2 1 1 1 1 2
11 12 11 10 7 9 11 10 5 5 7 8 8 7 7 7 7 7 6 7 7 8 8 8 7 7 6 5 4 3 3 3 3 3 3 3 3 4 3 2 2 2 2 2 2 1 1 1 2
8 10 10 7 4 8 11 11 9 6 7 8 7 7 7 7 5 5 5 6 6 7 8 8 8 7 6 5 4 4 3 3 3 2 3 3 3 4 3 2 2 2 2 2 2 2 1 1 1
8 9 8 4 3 6 8 11 9 8 8 7 7 7 6 6 5 5 5 6 7 8 8 8 8 7 7 5 4 3 3 2 2 2 3 3 4 4 3 3 2 2 2 2 2 2 1 1 1
10 10 8 6 2 4 5 9 9 7 7 6 6 6 6 6 6 6 6 6 7 7 8 7 8 8 7 6 4 4 3 2 2 3 2 3 3 4 3 3 3 2 2 2 3 3 3 2 1
10 8 7 7 6 5 5 6 7 7 7 6 6 5 5 5 5 5 6 6 7 7 7 7 7 7 7 7 6 7 5 4 4 3 3 3 3 3 3 3 3 2 2 2 2 2 2 3 2
6 6 7 7 6 5 7 7 6 6 7 7 6 5 4 4 4 4 5 5 5 6 6 6 7 7 7 7 7 7 5 4 3 3 4 3 3 2 2 2 2 2 2 2 2 3 3 3 3
6 6 4 3 4 7 10 9 7 5 7 5 4 3 2 2 3 3 3 3 4 4 5 5 6 7 7 7 7 7 6 5 5 4 4 3 2 2 2 2 2 2 2 2 3 3 4 4 4
7 7 5 6 7 7 6 8 5 2 2 3 3 1 0 1 2 3 3 3 3 4 5 5 6 6 6 6 6 6 6 6 6 5 4 4 3 2 3 2 2 2 2 2 2 3 3 4 4
9 8 6 6 7 4 6 8 2 1 1 1 0 1 1 1 1 2 2 3 3 4 5 5 6 6 5 5 5 5 5 4 3 4 4 3 2 2 2 2 2 2 2 2 2 2 3 3 3
7 7 3 1 1 4 6 3 3 2 2 2 2 2 2 2 2 2 2 2 3 4 4 5 5 5 5 5 5 4 4 3 3 3 3 2 2 2 2 2 2 2 2 2 2 2 2 2 3
3 5 4 4 5 6 5 6 4 4 2 2 2 2 2 2 2 2 2 2 2 3 4 4 5 5 4 4 4 3 3 3 3 3 3 2 2 2 2 2 2 2 1 1 1 1 1 2 2
3 4 4 4 4 4 5 3 2 3 1 1 1 1 2 3 2 2 2 2 3 3 4 4 4 4 4 4 4 4 3 3 3 3 3 2 2 2 2 2 2 1 1 1 1 1 2 2 2
3 4 5 5 4 3 3 2 3 1 1 1 2 2 2 3 3 3 3 3 3 4 4 4 4 4 3 4 4 4 3 4 3 3 3 2 2 2 2 1 1 1 1 1 1 2 2 2 3
Wind_Direction
246 233 219 214 214 223 230 210 202 174 180 177 170 193 202 185 200 76 95 147 143 145 144 141 134 134 131 128 124 122 122 120 118 116 115 114 112 108 105 102 100 99 99 97 96 95 94 91 88
223 204 207 216 227 219 216 208 201 186 138 140 165 194 192 159 54 95 133 145 148 145 144 143 133 132 131 130 128 126 124 122 120 118 117 116 114 109 106 102 99 97 97 98 95 94 93 92 90
192 222 217 211 225 229 213 190 197 164 161 175 164 186 205 111 112 121 131 148 149 145 144 135 134 134 132 131 130 126 126 124 123 121 119 118 115 112 108 104 100 98 97 98 97 95 93 93 92
195 195 216 228 222 225 237 142 163 170 172 192 182 154 128 67 88 115 137 152 149 146 143 136 137 136 134 133 132 129 125 124 124 123 122 120 118 114 110 106 103 101 99 98 98 97 96 95 95
215 209 208 222 226 218 224 196 176 186 175 174 189 162 131 95 99 130 144 151 150 146 143 140 137 137 136 136 135 131 128 126 124 123 121 120 120 115 111 108 107 105 104 104 101 100 100 98 96
197 213 218 220 215 213 212 202 200 202 181 172 186 163 121 110 133 139 146 152 150 146 144 142 136 136 136 136 136 134 131 130 128 125 122 119 117 115 114 112 110 108 107 106 106 105 103 102 99
213 211 226 226 218 213 203 194 209 200 189 176 184 164 136 137 138 144 146 147 147 147 148 147 149 144 137 134 133 132 130 129 126 121 119 116 112 113 112 111 113 111 110 107 106 107 108 105 104
236 223 222 221 219 212 183 182 206 215 196 136 205 187 154 147 144 144 143 144 143 148 152 153 155 155 153 146 133 130 128 127 124 119 115 114 115 114 111 115 109 110 111 109 108 107 105 100 99
219 226 220 213 216 204 178 186 169 201 169 169 207 347 102 135 149 150 150 152 151 153 156 158 159 159 157 152 143 140 133 129 131 127 121 135 142 137 131 111 104 107 110 111 110 108 105 104 103
209 225 224 220 221 201 182 196 173 179 187 187 176 143 139 150 163 167 169 167 166 165 164 164 162 163 159 155 155 156 152 149 153 147 148 154 143 131 126 111 108 109 112 115 110 109 122 155 137
209 228 224 220 223 219 194 193 191 201 204 202 187 162 159 165 174 180 179 177 173 168 166 170 164 164 165 160 158 153 153 154 155 152 153 152 143 140 140 137 138 143 148 146 135 152 155 155 129
214 224 225 216 209 215 211 196 200 220 229 158 186 166 170 177 183 187 185 180 176 173 173 173 171 169 170 164 160 159 158 158 156 157 161 161 153 152 144 151 150 160 164 159 165 174 152 157 155
216 213 216 224 222 225 220 219 228 234 242 216 174 176 185 186 187 190 187 182 182 181 178 176 175 173 170 169 165 164 163 163 160 162 170 169 164 161 156 158 159 167 170 171 180 186 168 173 163
210 208 211 222 223 227 226 235 238 234 218 188 181 188 192 192 190 186 187 188 186 184 182 177 180 177 170 170 172 169 166 163 164 163 170 175 171 166 165 165 165 173 181 186 201 200 204 216 222
203 210 222 223 219 213 218 236 231 229 209 201 196 194 197 199 197 197 193 192 190 186 182 179 178 180 175 170 169 170 168 166 163 162 169 173 174 176 175 178 178 183 185 193 205 193 224 249 250
199 210 217 209 211 211 220 237 220 211 208 213 209 202 201 204 206 204 198 196 191 186 183 176 173 176 175 169 165 166 170 169 165 162 165 175 180 184 186 186 188 190 189 192 200 210 216 238 258
200 213 216 207 204 204 218 242 225 210 217 224 220 213 208 208 209 207 202 199 191 187 183 176 172 174 171 165 162 161 165 168 168 165 167 177 184 187 189 191 190 189 189 192 197 216 238 253 267
200 210 214 212 196 208 220 237 238 226 227 229 225 218 213 212 211 206 202 197 190 186 183 177 169 169 163 159 154 150 154 163 166 165 167 173 178 181 184 186 189 190 186 189 195 198 224 266 275
216 215 216 217 209 218 226 240 244 233 230 230 226 222 219 217 210 198 195 193 186 184 184 178 173 167 163 159 163 164 164 163 164 166 169 172 175 176 180 183 187 196 196 197 197 195 208 238 261
213 214 216 210 208 228 236 249 250 239 233 232 228 224 219 216 205 196 193 190 192 189 187 183 180 175 174 173 168 167 157 161 158 160 171 176 175 175 182 189 190 197 198 201 200 197 215 219 234
216 215 211 202 199 215 239 247 230 221 219 224 225 223 223 222 216 201 197 195 195 194 190 186 184 180 177 169 152 140 135 143 163 171 175 183 179 178 184 190 197 201 208 210 210 208 213 224 224
220 211 205 195 201 210 214 247 220 207 209 215 220 217 224 224 223 210 201 200 199 198 190 186 183 180 176 170 166 167 172 176 184 182 178 173 177 179 183 187 193 199 209 213 215 223 231 233 231
214 190 196 205 215 232 215 236 230 197 213 215 217 218 225 225 220 211 204 200 196 189 184 182 177 174 175 176 175 180 184 179 166 167 170 167 165 175 179 183 187 194 206 213 215 223 229 232 239
166 158 166 193 210 231 214 220 232 200 213 211 205 216 232 224 210 198 182 177 174 170 170 171 171 170 171 175 178 182 179 173 170 174 170 168 163 169 177 188 193 198 206 212 219 225 229 233 238
179 168 172 193 206 227 187 218 237 194 219 236 229 234 291 204 184 174 167 163 161 161 164 166 166 165 167 171 177 181 182 181 183 181 179 175 174 179 185 190 197 201 211 220 224 228 235 235 237
195 199 201 203 206 184 184 220 192 92 59 18 254 115 78 84 127 153 164 165 160 160 160 160 161 160 160 164 169 173 173 179 180 180 177 181 182 182 182 190 194 199 208 217 218 227 234 241 241
183 210 250 250 184 203 199 206 229 146 112 68 69 95 92 75 84 106 133 148 152 156 161 162 157 153 155 157 156 163 166 168 163 162 164 167 161 157 171 182 187 186 195 212 219 228 230 238 245
228 179 179 198 193 212 200 209 198 164 148 76 65 81 78 70 72 84 106 123 135 147 153 154 152 148 146 144 146 148 153 153 150 148 145 145 142 140 157 167 170 172 183 203 214 232 240 238 247
165 184 203 203 244 227 204 171 71 143 123 110 88 75 79 70 68 72 81 102 115 125 137 139 136 132 129 130 133 134 132 135 137 136 138 138 140 145 151 155 158 170 188 206 221 234 237 242 249
224 211 201 200 205 238 237 123 65 99 48 76 114 98 83 78 70 74 82 92 100 109 119 123 124 123 119 119 121 119 118 121 121 121 122 130 138 134 136 138 153 169 203 217 236 251 254 252 256